Location: Atbuku
(36.4936°N, 30.4362°E)
Time: 05:31:49
(UTC+00:00)

Cosmos 1655 Rocket - Pass Details

Date: 11 December 2025
Orbit: 969 x 1006 km, 83.0° (Epoch: 13 January)

Event Time Altitude Azimuth Distance (km) Brightness Sun altitude
Rises 15:23:11 0° 1° (N) 3,676 6.8 -8.1°
Reaches altitude 10° 15:25:54 10° 10° (N) 2,722 6.0 -8.6°
Maximum altitude 15:31:41 39° 78° (ENE) 1,411 4.4 -9.7°
Drops below altitude 10° 15:37:25 10° 146° (SE) 2,703 6.2 -10.8°
Sets 15:40:05 0° 154° (SSE) 3,648 6.9 -11.3°
